Weather reports worldwide

Advertisment
Granada/Aeropuerto, Spain (8419): temperature & dewpoint: 06.12.2018 00:00:00 - 12.12.2018 00:00:00 (CET)Granada/Aeropuerto, Spain (8419): wind speed: 06.12.2018 00:00:00 - 12.12.2018 00:00:00 (CET)Granada/Aeropuerto, Spain (8419): wind direction: 06.12.2018 00:00:00 - 12.12.2018 00:00:00 (CET)Granada/Aeropuerto, Spain (8419): reduced air pressure: 06.12.2018 00:00:00 - 12.12.2018 00:00:00 (CET)Granada/Aeropuerto, Spain (8419): visibility: 06.12.2018 00:00:00 - 12.12.2018 00:00:00 (CET)
Date & Time tt [°C] td [°C] ff [km/h] ff [kn] dd ppp [hPa] vv [km]
12.12.2018 00:00:00 6,4 5,5 4 2 WNW 1025,6 4,0
11.12.2018 23:00:00 8,3 7,1 4 2 SE 1025,3 9
11.12.2018 22:00:00 7,7 6,5 4 2 S 1025,4 15
11.12.2018 21:00:00 7,9 6,8 11 6 WSW 1025,1 9
11.12.2018 20:00:00 8,3 6,4 5 3 SW 1024,4 11
11.12.2018 19:00:00 9,9 7,1 13 7 WSW 1023,9 15
11.12.2018 18:00:00 11,3 7,7 13 7 W 1023,3 13
11.12.2018 17:00:00 14,3 8,2 21 11 W 1022,0 16
11.12.2018 16:00:00 16,6 6,2 11 6 W 1021,3 30
11.12.2018 15:00:00 16,4 7,1 4 2 WNW 1021,4 4,8
11.12.2018 14:00:00 15,6 6,3 8 4 W 1022,6 20
11.12.2018 13:00:00 13,3 6,7 8 4 WNW 1024,0 15
11.12.2018 12:00:00 10,7 5,8 2 1 WNW 1025,5 2,8
11.12.2018 11:00:00 8,0 5,4 0 0 N 1026,4 11
11.12.2018 10:00:00 4,8 3,8 0 0 N 1027,1 30
11.12.2018 09:00:00 1,1 0,5 0 0 N 1027,4 4,3
11.12.2018 08:00:00 0,7 0,3 0 0 N 1027,4 30
11.12.2018 07:00:00 1,1 0,6 0 0 N 1027,5 30
11.12.2018 06:00:00 1,3 0,8 0 0 N 1027,2 15
11.12.2018 05:00:00 1,7 1,1 0 0 N 1027,2 19
11.12.2018 04:00:00 2,4 1,9 0 0 N 1027,2 14
11.12.2018 03:00:00 2,3 1,6 0 0 N 1027,6 19
11.12.2018 02:00:00 3,3 2,7 0 0 N 1027,3 12
11.12.2018 01:00:00 3,8 3,1 0 0 N 1027,8 9
11.12.2018 00:00:00 4,5 3,5 0 0 N 1028,3 13
10.12.2018 23:00:00 5,7 4,6 0 0 N 1028,0 19
10.12.2018 22:00:00 6,6 5,3 0 0 N 1027,6 18
10.12.2018 21:00:00 7,5 5,6 0 0 N 1027,3 17
10.12.2018 20:00:00 9,9 6,7 0 0 N 1026,3 21
10.12.2018 19:00:00 10,6 7,5 2 1 SSW 1025,7 25
10.12.2018 18:00:00 16,5 8,4 0 0 N 1024,1 24
10.12.2018 17:00:00 20,4 7,2 0 0 N 1023,3 12
10.12.2018 16:00:00 21,8 6,5 0 0 N 1023,3 4,0
10.12.2018 15:00:00 20,1 5,1 0 0 N 1024,2 21
10.12.2018 14:00:00 18,8 5,5 0 0 N 1025,5 25
10.12.2018 13:00:00 15,4 6,8 0 0 N 1027,3 20
10.12.2018 12:00:00 12,6 6,6 0 0 N 1029,3 14
10.12.2018 11:00:00 9,6 5,2 0 0 N 1030,8 14
10.12.2018 10:00:00 5,7 3,8 0 0 N 1031,6 9
10.12.2018 09:00:00 1,4 1,0 0 0 N 1032,5 9
10.12.2018 08:00:00 0,7 0,3 0 0 N 1032,3 8
10.12.2018 07:00:00 0,5 -0,2 0 0 N 1032,3 8
10.12.2018 06:00:00 1,2 0,7 0 0 N 1032,1 6
10.12.2018 05:00:00 1,3 0,6 0 0 N 1032,2 6
10.12.2018 04:00:00 1,9 1,2 0 0 N 1032,4 8
10.12.2018 03:00:00 2,6 1,9 0 0 N 1032,6 7
10.12.2018 02:00:00 3,2 2,3 0 0 N 1032,5 8
10.12.2018 01:00:00 3,6 2,7 0 0 N 1032,7 8
10.12.2018 00:00:00 4,0 3,1 0 0 N 1032,6 10
09.12.2018 23:00:00 4,5 3,2 0 0 N 1032,5 11
09.12.2018 22:00:00 5,4 3,8 4 2 SW 1032,0 15
09.12.2018 21:00:00 6,5 4,5 0 0 N 1031,5 14
09.12.2018 20:00:00 7,9 5,0 2 1 S 1030,6 25
09.12.2018 19:00:00 10,1 6,2 5 3 SSW 1029,6 15
09.12.2018 18:00:00 15,3 7,6 0 0 N 1027,8 30
09.12.2018 17:00:00 20,4 6,3 0 0 N 1026,5 30
09.12.2018 16:00:00 19,3 5,2 0 0 N 1026,4 30
09.12.2018 15:00:00 18,3 4,6 0 0 N 1026,9 30
09.12.2018 14:00:00 16,4 6,9 0 0 N 1028,1 15
09.12.2018 13:00:00 14,2 7,8 0 0 N 1029,4 15
09.12.2018 12:00:00 11,0 6,9 0 0 N 1031,4 7
09.12.2018 11:00:00 7,9 5,7 0 0 N 1032,8 9
09.12.2018 10:00:00 3,3 2,9 0 0 N 1033,8 3,0
09.12.2018 09:00:00 2,6 2,3 0 0 N 1033,6 6
09.12.2018 08:00:00 1,1 0,7 0 0 N 1034,0 10
09.12.2018 07:00:00 1,8 1,4 0 0 N 1033,5 10
09.12.2018 06:00:00 2,2 1,8 0 0 N 1033,0 8
09.12.2018 05:00:00 2,6 2,2 0 0 N 1032,7 8
09.12.2018 04:00:00 3,0 2,6 0 0 N 1032,5 7
09.12.2018 03:00:00 3,2 2,7 0 0 N 1032,3 7
09.12.2018 02:00:00 3,4 2,6 0 0 N 1031,9 7
09.12.2018 01:00:00 4,8 4,1 0 0 N 1032,1 8
09.12.2018 00:00:00 5,7 5,1 2 1 SSW 1031,6 9
08.12.2018 23:00:00 6,5 5,8 0 0 N 1031,2 10
08.12.2018 22:00:00 7,0 5,8 2 1 SSE 1030,8 13
08.12.2018 21:00:00 7,8 6,5 4 2 WSW 1030,3 10
08.12.2018 20:00:00 8,6 6,7 0 0 N 1029,5 14
08.12.2018 19:00:00 11,2 7,7 9 5 SSW 1028,2 17
08.12.2018 18:00:00 14,1 7,6 4 2 S 1026,9 19
08.12.2018 17:00:00 17,9 7,8 4 2 WNW 1025,4 22
08.12.2018 16:00:00 18,3 8,5 5 3 WNW 1025,1 25
08.12.2018 15:00:00 17,8 7,6 5 3 NNW 1025,5 30
08.12.2018 14:00:00 17,3 7,0 0 0 N 1026,0 25
08.12.2018 13:00:00 14,7 7,4 4 2 SSW 1027,6 15
08.12.2018 12:00:00 11,7 5,7 0 0 N 1029,3 9
08.12.2018 11:00:00 8,9 5,2 0 0 N 1030,7 8
08.12.2018 10:00:00 5,0 3,3 0 0 N 1031,3 8
08.12.2018 09:00:00 0,9 0,3 0 0 N 1032,3 10
08.12.2018 08:00:00 0,4 0,0 0 0 N 1032,3 7
08.12.2018 07:00:00 0,8 0,4 4 2 SSW 1031,8 6
08.12.2018 06:00:00 1,2 0,8 0 0 N 1031,8 2,9
08.12.2018 05:00:00 2,3 1,9 5 3 SW 1031,6 9
08.12.2018 04:00:00 1,4 0,7 2 1 W 1032,0 10
08.12.2018 03:00:00 2,5 1,8 0 0 N 1031,8 11
08.12.2018 02:00:00 3,1 2,6 0 0 N 1031,6 9
08.12.2018 01:00:00 2,5 1,6 2 1 WSW 1032,0 8
08.12.2018 00:00:00 4,1 3,4 0 0 N 1031,7 11
07.12.2018 23:00:00 5,3 4,3 8 4 SSW 1031,1 9
07.12.2018 22:00:00 5,8 4,3 2 1 NW 1030,6 15
07.12.2018 21:00:00 7,1 4,7 4 2 SSW 1030,3 14
07.12.2018 20:00:00 8,4 5,9 4 2 W 1029,5 18
07.12.2018 19:00:00 9,8 7,0 0 0 N 1028,4 15
07.12.2018 18:00:00 14,1 8,3 5 3 SSE 1026,6 16
07.12.2018 17:00:00 18,6 6,7 0 0 N 1025,5 30
07.12.2018 16:00:00 19,1 6,2 2 1 W 1025,4 30
07.12.2018 15:00:00 17,9 6,8 2 1 ESE 1025,7 18
07.12.2018 14:00:00 16,2 5,4 0 0 N 1026,7 15
07.12.2018 13:00:00 14,6 5,7 0 0 N 1027,6 5
07.12.2018 12:00:00 11,7 5,9 0 0 N 1029,4 10
07.12.2018 11:00:00 7,8 4,7 0 0 N 1030,8 6
07.12.2018 10:00:00 4,3 3,0 0 0 N 1031,7 4,0
07.12.2018 09:00:00 1,1 0,4 0 0 N 1032,0 7
07.12.2018 08:00:00 0,5 -0,1 0 0 N 1031,6 9
07.12.2018 07:00:00 1,0 0,6 0 0 N 1031,0 9
07.12.2018 06:00:00 1,2 0,7 0 0 N 1030,7 11
07.12.2018 05:00:00 1,7 1,1 0 0 N 1030,7 9
07.12.2018 04:00:00 2,0 1,4 0 0 N 1030,8 9
07.12.2018 03:00:00 3,0 2,4 0 0 N 1030,6 9
07.12.2018 02:00:00 3,1 2,4 2 1 S 1030,5 10
07.12.2018 01:00:00 4,1 3,4 2 1 SW 1030,5 16
07.12.2018 00:00:00 4,9 4,2 0 0 N 1030,4 13
06.12.2018 23:00:00 5,8 4,9 0 0 N 1030,1 13
06.12.2018 22:00:00 6,5 5,2 4 2 SW 1029,6 30
06.12.2018 21:00:00 7,3 5,5 0 0 N 1029,0 24
06.12.2018 20:00:00 9,4 6,6 0 0 N 1028,2 30
06.12.2018 19:00:00 11,4 7,7 0 0 N 1027,0 30
06.12.2018 18:00:00 16,7 8,4 2 1 S 1025,4 30
06.12.2018 17:00:00 21,1 8,4 0 0 N 1024,3 30
06.12.2018 16:00:00 21,4 7,5 0 0 N 1024,2 30
06.12.2018 15:00:00 20,5 6,1 0 0 N 1024,9 27
06.12.2018 14:00:00 18,3 7,7 0 0 N 1026,2 30
06.12.2018 13:00:00 16,5 6,5 0 0 N 1027,5 30
06.12.2018 12:00:00 13,1 7,1 0 0 N 1029,2 6
06.12.2018 11:00:00 9,9 6,3 0 0 N 1030,5 22
06.12.2018 10:00:00 6,4 4,4 0 0 N 1031,2 25
06.12.2018 09:00:00 3,4 3,0 0 0 N 1031,4 14
06.12.2018 08:00:00 2,5 2,2 8 4 SSW 1031,3 25
06.12.2018 07:00:00 1,9 1,5 0 0 N 1031,0 20
06.12.2018 06:00:00 2,6 2,3 0 0 N 1030,7 12
06.12.2018 05:00:00 2,7 2,3 0 0 N 1030,6 9
06.12.2018 04:00:00 3,5 2,9 0 0 N 1030,5 19
06.12.2018 03:00:00 3,9 3,5 4 2 NW 1030,4 10
06.12.2018 02:00:00 4,4 3,5 4 2 S 1030,3 15
06.12.2018 01:00:00 6,1 5,1 0 0 N 1030,1 20
06.12.2018 00:00:00 5,9 5,2 4 2 W 1030,0 28

tt = temperature
td = dewpoint
ff = wind speed
dd = wind direction
ppp = reduced air pressure
vv = visibility

Next stations